Regional Weather Roundup
Issued by NWS

Home | Current Version | Previous Version | Text Only | Print | Product List | Glossary On
Versions: 1 2 3 4 5 6 7 8 9 10 11 12 13 14 15 16 17 18 19 20 21 22 23 24 25 26 27 28
000
ASUS44 KJAN 090410
RWRMS

MISSISSIPPI HOURLY WEATHER ROUNDUP
NATIONAL WEATHER SERVICE JACKSON MS
1000 PM CST THU DEC 08 2016

NOTE: "FAIR: INDICATES FEW OR NO CLOUDS BELOW 12,000 FEET WITH NO
SIGNIFICANT WEATHER AND/OR OBSTRUCTIONS TO VISIBILITY.

MSZ001>002-007>008-010>013-018>021-025>028-034>036-090500-
NORTHWEST MISSISSIPPI

CITY           SKY/WX    TMP DP  RH WIND       PRES   REMARKS
CLEVELAND      FAIR      31  25  78 N6        30.59R WCI  25
GREENWOOD      CLEAR     32  18  56 N6        30.58R WCI  26
GREENVILLE     CLEAR     31  23  72 N7        30.58R WCI  24
OXFORD         FAIR      27  18  69 CALM      30.58R
WINONA         FAIR      31  19  61 N5        30.56R WCI  27
$$

MSZ003>006-009-014>017-022>024-029>033-037>039-090500-
NORTHEAST MISSISSIPPI

CITY           SKY/WX    TMP DP  RH WIND       PRES   REMARKS
COLUMBUS AFB   PTCLDY    33  21  61 N13       30.53R WCI  24
GOLDN TRIANGLE PTCLDY    34  16  47 N10       30.49R WCI  26
STARKVILLE     FAIR      32  21  64 N6        30.55R WCI  26
TUPELO         PTCLDY    31  17  56 NW9       30.55R WCI  23
$$

MSZ040-058-090500-
CENTRAL MISSISSIPPI

CITY           SKY/WX    TMP DP  RH WIND       PRES   REMARKS
JACKSON INTL   MOCLDY    36  21  54 N12       30.54R WCI  28
JACKSON HAWKNS PTCLDY    36  20  52 N6        30.56R WCI  31
MADISON        FAIR      34  21  60 N7        30.55R WCI  28
MERIDIAN KEY   PTCLDY    40  22  48 N13       30.51R WCI  32
MERIDIAN NAS   NOT AVBL
VICKSBURG VKS  CLEAR     37  21  52 N10       30.57R WCI  30
$$

MSZ059>079-090500-
SOUTH MISSISSIPPI

CITY           SKY/WX    TMP DP  RH WIND       PRES   REMARKS
COLUMBIA       FAIR      39  32  75 N6        30.52S WCI  35
HATTIESBURG    CLEAR     41  30  65 N8        30.50R
LAUREL         FAIR      38  28  67 N6        30.51R WCI  34
MCCOMB         MOCLDY    40  27  59 N8        30.50R WCI  34
NATCHEZ        PTCLDY    37  19  48 NE12G24   30.54R WCI  30
PINE BELT      CLEAR     37  27  65 N6        30.51R WCI  33
$$

MSZ080>082-090500-
COASTAL MISSISSIPPI

CITY           SKY/WX    TMP DP  RH WIND       PRES   REMARKS
BILOXI         CLOUDY    45  27  49 N10       30.44R
PASCAGOULA     CLOUDY    45  26  47 NE9       30.43F
GULFPORT       PTCLDY    46  25  43 N8        30.44R
$$

LAZ007>009-015>016-023>026-090500-
NORTHEAST LOUISIANA

CITY           SKY/WX    TMP DP  RH WIND       PRES   REMARKS
BASTROP        FAIR      36  18  47 N5        30.59S WCI  32
TALLULAH/VBURG PTCLDY    35  24  64 N12       30.59R WCI  27
VIDALIA        FAIR      39  28  63 N8        30.59R WCI  33
$$




USA.gov is the U.S. government's official web portal to all federal, state and local government web resources and services.